Powrót do katalogu

STARLINK-33767

AktywnyŁącznośćVLEO
NORAD 63722·PAYLOAD·🇺🇸 United States

Wystrzelony Apr 28, 2025 z Vandenberg Space Force Base

Loading…

Następne Przeloty (najbliższe 24 godziny)

TLE

ŚwieżeSource: CelesTrak SupGP

Epoka: Sep 14, 2026, 21:05 UTC

1 63722C 25087AB  26257.87895833  .00034465  00000+0  10184-2 0  2579
2 63722  53.1608  59.8857 0001139  63.9370  96.0105 15.34368994    13

Śledź STARLINK-33767 w czasie rzeczywistym z AllMySat

Download on the App Store